Showing default

GONETS M 15 (M25), 44906

Orbit data source: Space-Track

GONETS M 15 (M25), 44906 is a payload satellite owned by Gonets (CIS) in LEO that was launched on Thu, 26 Dec 2019 UTC via an ROKOT launch vehicle from the Plesetsk Missile And Space Complex (PKMTR). Payload-class satellites include a variety of spacecraft equipped with specific instruments for various scientific and technological missions. These include communications satellites like Starlink; space stations such as the ISS; scientific satellites like the Hubble; Earth observation satellites from companies like Planet Labs, Umbra, and HawkEye 360; GPS; miniature CubeSats for education and research; and military/defense satellites.

Loading next visibility...
Identifier
44906, 2019-096B
Orbit
LEO
Country
Flag of CISCIS
Related business
Manufacturer
Resehetnev ISS
Mission
Operational Commercial Communications
Bus & Motor
STRELA-3M, Unknown motor
Mass
225 kg wet, 225 kg dry
Launch date (UTC)
2019-12-26 (6 years ago)
Launch vehicle
ROKOT
Launch site
Plesetsk Missile And Space Complex (PKMTR)
Object type
Payload
Rocket body
Debris
Shape & HBR
Cyl + 1 Ant, 3.5 m
Radar Cross Section
1.798 m², Large (>1 m²)

Expand to show TLE details & history
Last TLE update: 1 day ago

TLE from 1 day ago
0 GONETS M 15 (M25)
1 44906U 19096B   26172.50499074 -.00000045  00000-0 -39508-3 0  9993
2 44906  82.5253  82.4261 0015110 161.8661 198.2960 12.42871491294188
Epoch: 2026-06-21T12:07Z
TLE epoch observation values (Epoch: 2026-06-21T12:07:11.199Z)
Latitude
-0.00011°
Longitude
-9.07488°
Altitude
1,508.452 km
Speed
7.105 km/s
True Right ascension
05h 29m 42s
True Declination
0° 00' 00"
Sunlit
Object was in daylight at epoch
Visualization orbit readout
Latitude
Unknown
Longitude
Unknown
Altitude
Unknown
Speed
Unknown
Apparent Right ascension
Unknown
Apparent Declination
Unknown
Sunlit
N/A
Visualization observer readout
Local Sidereal Time
23:19:29
Azimuth
Unknown
Elevation
Unknown
Doppler factor
Unknown
Orbital elements
Apogee altitude
1,503.696 km
Perigee altitude
1,479.913 km
Semi-major axis
7,869.941 km
Eccentricity
0.00151
Inclination
82.5253°
RAAN
82.4261°
Arg. of periapsis
161.8661°
True anomaly
198.24174°
Mean anomaly
198.296°
Eccentric anomaly
198.26886°
Mean motion
3.10875 °/min
Orbital period
115.8 mins
BSTAR
-0.00039508
Loading maneuver chart data...
Computing Atmospheric mass density...
Loading historical data...
Loading historical data...
Loading historical data...
Loading historical data...
Loading historical data...
Loading historical data...
Loading historical data...
Other satellites on launch #96 in the year 2019 (2019-12-26 UTC)

Documentation

Showing up to 5 results
|